Rbgn^[z[y[W
メイン
   新天体発見情報
     Comet P/2011 CR42 = 2018 H1 (Catalina)
投稿するにはまず登録を

スレッド表示 | 新しいものから 前のトピック | 次のトピック | 下へ
投稿者 スレッド
佐藤裕久
投稿日時: 2018-4-28 18:41
モデレータ
登録日: 2005-6-12
居住地: 日本
投稿: 1928
オンライン
Comet P/2011 CR42 = 2018 H1 (Catalina)

E. Schwab (Egelsbach,ドイツ)の通報によると、彼は、4月17日、遠隔操作によりCalar Alto天文台
(スペイン)の0.8-m f/3 Schmidt望遠鏡で得たCCD画像からP/2011 CR42 (Catalina)を検出した(測定は
彼の他、D. KoschnyとM. Micheliが手伝った)。
二夜に、それぞれ総露出時間は600秒だったが、コマまたは尾はなかった。
MPEC 2013-Y32のG. V. WilliamsとICQ's 2018 Comet Handbookの中野主一氏の予報に対して、Delta(T)
は、-0.25 dayであった

検出位置は次のとおり、

     2018 UT             R.A. (2000) Decl.       Mag.   Observer
     Apr. 17.01417   14 31 15.72   - 8 41 42.5   21.0   Schwab
          17.02370   14 31 15.30   - 8 41 42.4   20.9     "
          17.03335   14 31 14.84   - 8 41 42.1   21.0     "
          17.07509   14 31 12.93   - 8 41 40.4   21.1     "
          18.04705   14 30 30.41   - 8 41 09.0   20.9     "
          18.06811   14 30 29.47   - 8 41 08.6   20.8     "
          18.07853   14 30 29.01   - 8 41 08.2   21.2     "

連結軌道要素と位置推算表は次のとおり、

Orbital elements:
    P/2011 CR42 (Catalina)
Epoch 2011 Nov. 15.0 TT = JDT 2455880.5
T 2011 Nov. 29.92719 TT                                 MPCW
q   2.5283688            (2000.0)            P               Q
n   0.14978971     Peri.  173.50334     -0.61123809     +0.78139218
a   3.5114089      Node    58.74136     -0.73259855     -0.49847769
e   0.2799560      Incl.    8.45949     -0.29947849     -0.37542808
P   6.58
From 121 observations 2011 Feb. 10-2018 Apr. 18, mean residual 0".6.

    P/2011 CR42 (Catalina)
Epoch 2018 June 11.0 TT = JDT 2458280.5
T 2018 June 22.32531 TT                                 MPCW
q   2.5217202            (2000.0)            P               Q
n   0.14991496     Peri.  173.11469     -0.61679263     +0.77700711
a   3.5094527      Node    58.72174     -0.72901160     -0.50363844
e   0.2814492      Incl.    8.46465     -0.29683150     -0.37763511
P   6.57
From 121 observations 2011 Feb. 10-2018 Apr. 18, mean residual 0".6.

    P/2011 CR42 (Catalina)
Epoch 2025 Jan. 5.0 TT = JDT 2460680.5
T 2025 Jan. 11.55607 TT                                 MPCW
q   2.5279641            (2000.0)            P               Q
n   0.14980241     Peri.  172.63880     -0.62332624     +0.77179108
a   3.5112104      Node    58.71443     -0.72472449     -0.50981262
e   0.2800306      Incl.    8.45888     -0.29366446     -0.38003897
P   6.58
From 121 observations 2011 Feb. 10-2018 Apr. 18, mean residual 0".6.

    P/2011 CR42 (Catalina)
Epoch 2018 Mar. 23.0 TT = JDT 2458200.5
T 2018 June 22.47414 TT                                 MPCW
q   2.5216293            (2000.0)            P               Q
n   0.14995922     Peri.  173.15533     -0.61623622     +0.77744868
a   3.5087622      Node    58.72211     -0.72937223     -0.50311753
e   0.2813337      Incl.    8.46453     -0.29710112     -0.37742058
P   6.57
From 121 observations 2011 Feb. 10-2018 Apr. 18, mean residual 0".6.

Ephemeris:
    P/2011 CR42 (Catalina)
Date    TT    R. A. (2000) Decl.     Delta      r     Elong.  Phase   m1    m2
2018 03 19    14 44 05.7 -08 49 37   1.7666  2.5798   136.3    15.5        21.6
...
2018 04 03    14 39 46.7 -08 48 54   1.6376  2.5633   151.9    10.6        21.3
...
2018 04 11    14 35 21.1 -08 45 02   1.5887  2.5555   160.6     7.5        21.1
...
2018 04 17    14 31 16.3 -08 41 39   1.5621  2.5502   167.0     5.1        20.9
2018 04 18    14 30 32.6 -08 41 06   1.5586  2.5494   168.1     4.7        20.9
2018 04 19    14 29 48.1 -08 40 35   1.5553  2.5485   169.1     4.3        20.9
...
2018 04 25    14 25 10.7 -08 37 56   1.5412  2.5438   174.1     2.3        20.7
...
2018 05 03    14 18 48.8 -08 36 51   1.5370  2.5382   171.5     3.4        20.8
...
2018 05 18    14 07 57.0 -08 47 26   1.5732  2.5299   155.8     9.4        21.1

(CBET 4510、MPEC 2018-H30)

スレッド表示 | 新しいものから 前のトピック | 次のトピック | トップ

投稿するにはまず登録を
 
© 1999 Tsutomu Seki.